Location: Goodmans Corner
(38.2049°N, 120.9872°W)
Time: 15:35:40
(UTC+00:00)

Envisat - Pass Details

Date: 24 October 2019
Orbit: 764 x 766 km, 98.1° (Epoch: 13 November)

Event Time Altitude Azimuth Distance (km) Brightness Sun altitude
Rises 01:37:10 0° 149° (SSE) 3,219 6.0 -5.0°
Reaches altitude 10° 01:39:33 10° 143° (SE) 2,296 5.2 -5.5°
Maximum altitude 01:44:20 44° 72° (ENE) 1,048 3.3 -6.4°
Drops below altitude 10° 01:49:09 10° 1° (N) 2,310 5.4 -7.3°
Sets 01:51:32 0° 355° (N) 3,240 6.2 -7.8°
